This is the latest recevied weather packets stored in our database for station/object VA3XLT-1. If no packets are shown the sender has not sent any weather packets the latest 10 day(s).
| Time | Temp. | Humidity | Pressure | Rain* | Wind** | Luminosity | Snow |
|---|---|---|---|---|---|---|---|
| 1778000557 | 16.67° C | 62% | 1007.3 hPa | 0 mm | - | - | - |
| 1777999957 | 17.22° C | 62% | 1007.3 hPa | 0 mm | - | - | - |
| 1777999657 | 16.67° C | 59% | 1007.3 hPa | 0 mm | - | - | - |
| 1777999357 | 16.67° C | 60% | 1007.3 hPa | 0 mm | - | - | - |
| 1777999057 | 16.67° C | 57% | 1007.1 hPa | 0 mm | - | - | - |
| 1777998757 | 16.67° C | 61% | 1006.9 hPa | 0 mm | - | - | - |
| 1777998457 | 16.67° C | 59% | 1006.6 hPa | 0 mm | - | - | - |
| 1777998157 | 16.11° C | 61% | 1006.5 hPa | 0 mm | - | - | - |
| 1777997857 | 16.11° C | 59% | 1006.4 hPa | 0 mm | - | - | - |
| 1777997557 | 16.11° C | 57% | 1006.4 hPa | 0 mm | - | - | - |
| 1777997257 | 16.67° C | 60% | 1006.5 hPa | 0 mm | - | - | - |
| 1777996957 | 16.67° C | 63% | 1006.6 hPa | 0 mm | - | - | - |
| 1777996658 | 16.67° C | 64% | 1006.4 hPa | 0 mm | - | - | - |
| 1777996357 | 16.11° C | 63% | 1006.3 hPa | 0 mm | - | - | - |
| 1777996057 | 16.67° C | 63% | 1006.6 hPa | 0 mm | - | - | - |
| 1777995757 | 16.67° C | 60% | 1006.5 hPa | 0 mm | - | - | - |
| 1777995457 | 17.22° C | 60% | 1006.6 hPa | 0 mm | - | - | - |
| 1777995157 | 16.67° C | 62% | 1006.6 hPa | 0 mm | - | - | - |
| 1777994857 | 16.67° C | 63% | 1006.7 hPa | 0 mm | - | - | - |
| 1777994557 | 16.67° C | 59% | 1006.5 hPa | 0 mm | - | - | - |
| 1777994257 | 16.67° C | 63% | 1006.4 hPa | 0 mm | - | - | - |
| 1777993957 | 16.67° C | 66% | 1006.3 hPa | 0 mm | - | - | - |
| 1777993657 | 16.11° C | 65% | 1006.3 hPa | 0 mm | - | - | - |
| 1777993357 | 16.67° C | 65% | 1006.3 hPa | 0 mm | - | - | - |
| 1777993057 | 16.11° C | 67% | 1006.2 hPa | 0 mm | - | - | - |
* Rain latest hour (hover to see other rain measurements)
** Current wind speed in m/s (hover to see current wind gust speed)